User: anonymous   Login
Location: Unspecified
(0.0000°N, 0.0000°E)
Time: 20:09:33
(UTC+00:00)
Language:

ONEWEB-0716 - Orbit

View from above orbital plane
View from above orbital plane
View from above satellite
View from above satellite

Ground track
Ground track

The orbit is defined by the following mean orbital elements,

1 55177U          26145.34024961 +.00000000 +00000-0 -11137-5 0 00004
2 55177  87.9154  10.4120 0001787  76.4094 283.7237 13.17650000    07
Epoch (UTC): 25 May 2026 08:09:57
Eccentricity: 0.0001787
inclination: 87.9154°
perigee height: 1192 km
apogee height: 1195 km
right ascension of ascending node: 10.4120°
argument of perigee: 76.4094°
revolutions per day: 13.17650000
mean anomaly at epoch: 283.7237°

The dashed part of the orbit path shows where the satellite is in the earth's shadow,  

DLR